Terminal Aerodrome Forecast
Issued by NWS Cleveland, OH

Home | Current Version | Previous Version | Graphics & Text | Print | Product List | Glossary On
Versions: 1 2 3 4 5 6 7 8 9 10 11 12 13 14 15 16 17 18 19 20 21 22
000
FTUS41 KCLE 260500
TAFTOL
TAF
KTOL 260534Z 2606/2706 21003KT P6SM SCT150 BKN250
      TEMPO 2610/2613 3SM BR
     FM261500 24006KT P6SM SCT035 BKN150
      TEMPO 2619/2623 2SM TSRA BR BKN025CB OVC035
     FM262300 29006KT P6SM SCT150 BKN250=

USA.gov is the U.S. government's official web portal to all federal, state and local government web resources and services.